Theta_e
325 319 314 316 320 324 322 319 303 310 308 301 303 304 303 314 313 311 311 313 311 315 317 320 321 320 315 315 315 314 314 315 317 310 309 318 327 328 331 332 334 338 340 341 341 340 341 341 341 341 342 342 340 339 338 337 336 336 335 335 335 335 334 333 332 331 331 331 331 330 330 330 331 331 330 330 330 329 329 329 329 328 328 327 327 326 326 325 326 326 326 325 325 324 324 323 323
320 317 314 316 324 321 313 318 306 305 304 303 303 307 308 312 311 311 310 312 314 314 318 320 320 320 319 319 320 319 317 314 317 314 315 325 328 328 328 330 333 339 338 341 340 341 341 342 341 341 342 341 340 338 337 336 336 335 335 335 335 334 334 332 331 329 329 329 329 329 330 330 329 329 329 329 329 329 328 328 328 327 327 326 327 326 325 325 325 325 324 324 323 324 323 323 322
317 313 315 321 323 320 317 315 300 302 299 297 302 306 313 309 309 312 314 314 315 317 319 318 319 318 318 319 316 316 312 318 318 320 319 323 325 325 328 330 332 341 341 340 341 341 341 341 341 341 340 340 339 337 336 335 335 334 334 334 334 332 330 329 329 328 328 328 327 328 328 329 329 329 328 328 328 328 327 326 327 327 325 325 325 325 325 324 324 323 323 322 323 323 323 322 322
312 311 314 321 314 317 310 309 304 302 299 301 302 309 310 311 311 313 314 315 316 318 317 316 315 315 317 314 315 319 316 315 316 317 319 320 322 327 328 329 333 341 342 341 341 340 340 340 339 338 338 338 337 336 336 334 334 334 333 332 331 329 328 327 327 327 327 326 326 327 327 327 328 328 328 328 328 327 325 325 326 325 324 324 324 324 325 324 323 322 322 322 321 322 321 320 320
309 314 320 321 315 307 308 306 304 304 299 303 301 310 312 313 311 312 313 316 316 318 318 316 313 316 317 317 317 316 314 317 318 318 318 323 324 327 327 328 335 339 338 339 339 338 338 338 337 337 336 335 335 335 334 333 333 332 332 331 330 328 327 327 326 326 326 325 325 326 326 326 326 326 327 327 327 326 325 324 324 324 323 323 323 323 324 323 322 321 321 320 320 320 320 319 319
312 313 320 320 310 314 309 301 300 301 305 308 305 309 314 314 312 313 312 313 315 316 317 316 314 312 313 312 314 314 314 315 317 318 318 321 322 325 327 328 337 337 337 338 337 336 337 337 336 335 334 334 334 333 332 332 331 331 330 329 328 327 327 326 326 325 325 325 324 324 324 325 325 324 325 326 326 325 324 323 323 323 322 322 322 323 322 322 322 321 320 319 318 318 318 318 318
315 317 319 317 314 314 302 300 301 302 305 309 310 313 315 314 314 313 312 311 314 314 316 315 316 316 310 311 315 314 314 315 316 316 317 320 323 325 329 331 337 336 336 336 335 335 337 336 335 334 334 333 332 332 332 331 331 330 329 328 327 327 326 326 325 324 324 323 323 323 323 323 323 323 323 324 325 324 323 323 323 321 321 321 321 321 321 321 320 319 318 318 317 317 317 317 316
317 314 314 309 305 305 300 302 303 305 308 309 314 315 316 315 314 314 312 312 309 311 314 316 318 315 310 318 312 314 316 316 316 318 319 321 324 327 329 336 334 333 334 335 335 334 335 334 334 333 333 332 331 331 331 330 330 329 328 327 326 325 325 325 324 324 323 322 322 323 322 322 321 321 321 322 322 323 322 321 321 320 320 321 321 320 320 319 319 318 317 316 316 316 316 315 315
318 318 316 310 302 304 302 300 302 309 310 312 313 316 317 316 315 315 313 315 313 315 314 315 317 311 309 312 312 313 314 317 318 319 321 323 325 329 333 332 332 331 333 332 333 333 334 334 333 332 331 330 330 330 330 329 329 328 327 326 326 325 325 324 322 322 322 321 322 322 321 321 321 320 320 320 320 321 321 320 320 320 320 320 320 319 319 318 317 317 316 316 315 315 315 314 314
318 318 309 308 307 298 300 301 300 305 306 313 314 314 316 315 314 316 315 313 313 314 315 317 316 313 313 308 308 313 313 316 317 319 321 324 328 331 330 331 332 331 330 331 332 331 331 333 332 331 330 329 329 329 329 328 328 327 326 325 325 324 324 323 321 321 321 321 321 320 320 320 320 319 318 317 318 319 319 319 318 318 319 319 319 319 318 318 317 316 316 315 314 314 313 313 312
312 316 319 306 300 297 298 299 301 308 309 313 314 317 317 316 315 314 315 315 316 314 313 316 313 312 313 310 311 315 315 317 317 315 320 324 326 327 327 329 329 330 330 331 331 330 329 330 331 330 330 329 328 328 328 327 327 326 325 325 324 323 322 321 320 320 320 320 319 319 319 319 319 318 316 316 315 316 317 317 317 317 317 318 317 317 317 316 315 315 315 314 313 312 312 312 311
310 310 311 302 300 298 300 299 302 306 311 312 312 315 317 316 316 313 314 312 313 313 313 315 311 316 310 309 310 312 315 314 315 317 319 323 323 324 324 323 325 327 329 329 330 329 328 329 329 328 328 327 327 326 326 325 325 324 324 323 322 321 320 319 318 318 319 319 318 317 317 317 317 316 315 314 313 314 315 315 315 315 316 316 316 316 316 315 315 314 314 313 312 311 310 310 309
311 313 308 304 302 302 303 301 302 307 309 310 312 315 318 316 314 314 314 315 315 313 312 314 317 317 309 310 312 312 312 313 316 318 319 320 321 320 320 319 320 321 323 325 325 325 327 325 326 326 325 325 325 325 324 324 323 323 322 322 321 319 317 317 316 316 316 317 317 316 316 316 316 315 314 313 312 313 312 312 314 314 314 315 315 314 314 314 314 313 313 312 311 309 308 308 308
312 313 310 302 308 304 302 301 305 303 305 312 316 316 317 314 316 316 316 312 313 312 314 317 318 317 309 309 309 309 312 314 316 317 317 318 317 316 315 315 316 316 318 321 321 322 322 323 323 324 323 322 321 321 320 320 319 319 319 319 318 317 317 316 315 314 314 314 314 314 314 313 313 313 312 312 311 310 310 310 312 313 313 313 314 313 313 313 313 312 311 310 309 307 306 306 305
313 318 310 306 303 303 305 301 303 303 303 313 315 315 315 315 317 316 315 313 311 312 315 319 315 316 308 310 308 311 311 313 315 315 315 316 315 313 313 312 312 313 314 317 318 318 318 319 318 319 320 321 320 318 318 318 317 317 317 316 315 315 315 314 313 312 312 312 311 312 312 312 311 310 310 310 310 309 309 308 309 310 311 312 312 312 311 311 311 311 310 309 307 305 304 303 303
319 316 311 304 300 301 304 303 306 304 305 312 313 316 314 313 317 315 316 316 313 314 316 313 316 310 314 314 316 315 313 314 314 314 314 313 312 311 310 310 310 311 312 313 311 313 315 314 313 312 313 314 317 317 315 315 317 316 315 314 313 313 312 311 310 309 309 309 310 310 309 308 308 307 308 307 308 307 307 306 307 308 309 309 309 310 309 309 310 309 307 306 305 303 302 301 301
318 316 304 304 299 302 304 303 306 301 309 311 313 312 311 310 313 313 316 316 311 312 312 312 310 313 314 314 315 314 313 313 313 312 311 311 312 312 310 310 309 308 308 307 307 308 310 309 307 307 308 309 310 311 312 312 311 311 311 312 311 311 309 308 307 307 306 306 307 307 307 308 308 306 305 306 305 305 305 305 305 306 306 306 307 307 308 307 307 307 305 304 303 302 300 299 299
315 305 304 301 302 302 306 305 308 312 307 309 309 313 312 307 310 312 316 314 311 312 311 311 312 311 312 313 315 314 313 312 312 311 311 311 312 310 310 309 310 307 304 303 305 303 303 304 305 305 306 307 308 309 310 308 307 308 306 307 307 307 307 306 306 306 306 306 307 306 306 306 306 305 304 304 303 303 303 303 303 303 304 304 304 305 305 305 304 304 303 302 301 300 298 298 298
306 305 303 299 304 307 310 311 313 310 309 309 310 314 313 309 310 312 310 307 309 308 309 310 306 308 311 313 312 312 311 311 312 313 312 312 312 310 308 306 304 302 300 300 302 305 304 302 304 304 306 307 306 307 308 306 305 305 306 306 307 306 306 306 306 306 306 307 306 305 304 305 304 303 302 303 303 301 301 301 301 301 302 303 302 302 302 302 302 302 301 300 299 298 297 296 296
311 305 300 302 308 309 313 315 314 315 312 309 310 312 313 311 311 314 309 307 309 308 305 306 306 304 307 308 310 310 311 311 313 313 313 313 311 309 307 306 305 301 299 299 300 301 303 302 305 305 306 307 305 304 305 304 305 305 304 305 304 304 305 305 306 306 306 306 305 304 304 304 304 303 302 301 301 302 301 300 300 299 300 300 301 300 300 300 300 299 299 298 297 296 296 295 295
310 305 302 304 309 308 311 314 316 315 314 311 311 312 309 311 312 313 309 306 308 311 310 309 307 306 306 308 309 310 310 309 310 309 308 307 306 307 306 305 304 303 301 301 301 300 302 303 304 305 305 306 305 304 304 304 305 304 304 304 305 303 304 304 305 305 306 306 305 304 305 304 303 302 303 302 301 301 301 300 300 300 300 300 299 299 298 298 298 298 297 296 296 295 295 295 295
310 305 310 310 310 307 312 314 316 314 315 313 312 309 309 314 312 311 310 306 306 309 310 311 310 309 308 307 309 310 308 308 308 308 307 306 305 304 302 301 301 303 301 299 300 301 303 304 304 304 304 305 304 304 303 305 305 303 304 303 303 304 305 304 305 305 304 305 305 305 304 304 302 302 302 301 301 300 299 299 299 299 299 299 299 298 297 297 297 296 296 295 294 294 294 295 294
303 305 307 310 310 309 312 313 314 314 313 312 310 313 313 310 309 312 311 310 312 314 313 312 311 310 310 310 309 308 308 307 307 307 306 305 304 301 300 300 298 297 300 300 301 301 302 303 304 304 303 305 306 305 305 305 304 304 304 304 303 303 304 304 304 304 304 305 305 305 303 302 301 301 300 300 299 299 298 298 298 298 298 297 297 296 296 296 295 294 294 294 294 294 294 294 294
309 303 307 307 310 310 312 311 314 313 313 311 314 315 310 309 303 309 307 307 312 313 313 312 311 312 311 308 309 307 307 306 307 307 308 306 304 301 300 300 299 301 301 301 302 302 303 302 303 303 303 303 303 303 303 303 304 305 304 304 304 303 303 303 303 304 305 304 304 303 302 301 300 300 299 299 298 299 298 299 298 297 297 296 296 296 295 295 294 294 294 294 293 293 293 293 293
306 305 307 306 309 310 313 312 312 313 311 312 313 310 309 310 308 308 304 307 310 311 312 311 310 310 311 308 306 307 306 305 305 305 306 308 303 300 299 299 299 300 299 301 302 301 302 302 302 301 302 301 302 302 302 303 304 304 304 304 303 304 303 303 304 304 304 303 303 303 303 301 300 299 299 298 298 298 298 298 297 296 296 295 295 294 294 293 293 292 292 293 293 293 292 292 292
308 307 306 305 306 309 311 311 311 309 309 311 306 304 307 307 310 304 304 307 310 311 310 309 309 308 307 306 306 306 305 304 304 304 304 305 302 299 298 299 299 297 299 300 302 302 301 301 301 301 301 301 302 301 302 302 302 303 304 304 303 304 303 304 304 303 303 303 302 302 302 300 299 298 298 297 297 297 297 298 297 296 295 294 294 293 293 292 291 291 292 292 292 292 291 291 291
309 306 305 305 306 308 309 308 307 307 306 309 303 302 302 305 307 300 304 308 310 309 308 309 308 307 307 305 305 305 304 302 303 302 303 303 301 299 298 298 298 299 300 301 301 302 303 301 302 301 302 304 303 301 302 301 302 302 303 304 304 303 304 304 303 303 303 302 301 302 301 300 299 298 297 297 297 297 297 297 296 295 294 293 293 292 292 292 291 291 291 290 291 291 291 291 291
307 306 304 304 305 307 308 309 306 307 304 306 307 303 305 304 305 302 304 308 309 307 306 307 308 308 306 304 303 303 304 304 301 302 301 302 301 300 299 299 299 300 301 300 301 302 301 301 301 301 301 302 302 301 302 302 302 302 303 303 303 303 304 303 303 303 302 301 302 301 300 299 299 298 298 297 297 296 296 296 295 294 293 293 293 292 291 292 291 291 292 291 292 292 291 291 291
307 306 299 301 304 302 305 304 305 309 304 308 308 302 300 301 298 303 306 308 308 306 306 306 306 305 305 304 304 304 303 302 302 302 302 303 302 300 299 299 299 299 300 301 301 302 300 300 300 301 301 302 301 301 301 302 302 302 303 303 303 304 303 303 302 302 301 301 301 301 300 299 298 298 297 297 296 296 295 295 294 294 293 293 292 292 292 291 291 291 291 292 291 291 291 291 291
308 305 301 300 300 299 302 305 307 306 305 308 309 293 297 296 299 302 306 307 307 305 304 304 303 304 303 303 303 303 303 302 301 302 302 301 303 302 299 299 301 301 300 300 301 300 301 301 302 302 303 302 302 301 301 301 302 303 303 303 303 303 302 302 302 302 301 300 300 300 299 299 298 297 297 296 296 295 295 294 294 293 292 292 292 291 290 290 290 290 290 290 290 290 289 290 289
299 301 303 297 296 294 302 302 304 303 306 306 305 297 295 296 298 303 305 307 305 303 303 303 302 302 302 303 302 302 303 304 303 303 302 301 301 301 300 300 301 301 301 300 301 301 300 301 300 300 303 303 302 302 302 302 303 303 302 302 302 303 302 302 301 301 300 300 299 299 299 298 297 297 296 296 295 295 294 293 292 292 292 292 290 290 290 290 290 289 289 289 289 289 289 289 289
300 295 289 294 295 294 299 303 304 299 302 305 304 298 296 297 298 301 304 305 305 302 303 303 303 302 303 303 302 302 303 304 303 303 302 301 301 300 300 299 300 300 300 301 302 301 300 301 301 301 303 303 303 303 303 302 301 302 302 302 302 303 301 301 300 300 299 299 299 299 298 297 297 296 296 296 294 294 293 292 291 292 291 291 290 290 290 289 289 290 290 289 287 288 288 288 289
299 294 288 287 293 293 296 301 303 305 301 303 303 296 295 294 299 301 304 305 304 302 302 303 303 303 303 303 303 303 302 303 303 302 303 303 302 300 299 299 299 299 300 300 300 300 300 301 301 303 301 302 301 301 303 303 302 302 301 301 302 302 301 300 299 299 299 299 298 298 297 296 296 295 295 295 294 293 292 292 291 291 291 290 289 289 289 289 288 288 289 289 288 287 287 287 288
291 295 290 292 289 292 289 299 302 303 303 298 303 298 297 298 299 301 303 304 303 302 302 302 303 303 304 303 303 303 303 302 302 303 303 304 303 301 300 301 300 300 301 301 301 300 299 301 302 304 304 302 302 302 302 302 302 302 301 301 302 301 301 300 299 299 299 298 298 296 296 295 295 295 295 294 293 293 292 292 291 290 290 289 289 289 289 289 289 288 288 288 288 287 286 286 286
287 288 288 288 291 292 292 293 298 301 302 299 298 296 293 295 298 300 302 304 303 302 302 303 303 303 304 304 304 304 303 303 303 304 305 305 306 304 301 301 301 300 300 301 301 301 301 302 303 302 302 302 302 303 303 302 301 301 301 301 301 300 300 299 299 298 298 298 297 296 296 294 293 294 294 294 293 292 292 291 290 290 290 289 289 288 288 288 288 288 287 287 288 288 286 286 286
292 292 292 290 287 287 289 296 300 301 298 296 297 294 293 294 296 299 302 304 303 303 303 303 303 303 303 304 304 305 304 304 306 306 306 306 307 305 303 301 300 300 300 300 300 301 301 302 302 302 302 301 301 301 301 301 300 300 299 300 299 299 299 298 298 298 298 296 296 295 295 294 293 293 293 293 292 291 291 290 290 289 289 288 288 287 287 287 287 286 287 287 286 288 288 287 286
295 294 292 291 290 289 295 296 300 301 298 296 297 295 294 295 296 298 301 303 302 302 301 302 303 302 302 304 305 306 306 306 307 306 306 306 306 306 303 301 300 299 299 299 299 299 300 300 301 301 301 302 301 300 300 300 299 299 300 299 298 298 298 297 297 297 296 295 294 294 293 293 293 293 292 292 291 291 291 290 289 288 288 288 287 287 287 287 287 287 286 287 286 286 286 286 286
294 292 290 289 290 287 293 295 299 302 297 292 295 294 294 295 297 298 300 301 299 301 301 302 303 303 303 303 304 306 308 309 308 306 305 306 306 307 303 302 300 297 298 298 298 299 300 300 300 301 301 301 301 301 301 300 300 299 299 299 299 298 297 296 295 295 294 294 293 293 293 292 292 292 291 291 290 290 290 289 288 287 287 287 287 287 287 287 286 286 286 286 287 285 285 285 285
293 290 288 287 287 290 293 294 298 300 297 291 294 292 292 294 296 298 298 299 301 303 304 303 303 303 304 305 305 306 306 306 307 306 306 306 306 306 304 302 301 299 298 298 299 300 300 300 301 302 301 301 302 302 302 301 301 301 301 300 299 298 299 298 297 295 294 292 292 292 292 292 291 291 291 290 289 289 289 288 287 287 287 287 286 287 286 286 286 285 285 285 285 287 286 286 285
292 290 288 286 288 288 285 291 297 297 296 292 294 292 292 295 297 297 299 300 301 303 303 304 306 304 304 305 306 305 305 305 305 305 305 306 306 305 304 302 301 301 299 299 300 300 299 300 301 301 302 302 302 302 302 302 301 300 300 300 299 299 296 295 294 293 293 292 291 291 291 291 291 290 290 290 289 288 288 287 287 287 287 287 286 286 285 285 285 285 285 285 285 284 284 284 286
293 293 291 288 288 291 292 289 296 298 298 298 295 292 291 293 293 294 297 300 300 301 302 302 305 307 307 307 307 308 306 305 305 306 306 306 306 305 304 303 302 301 301 300 300 300 299 300 301 301 302 301 301 302 301 300 299 298 297 297 297 295 295 294 294 293 293 291 291 290 289 290 290 290 290 289 288 288 287 287 287 287 286 286 286 285 285 284 285 285 284 284 284 282 282 284 285
293 294 293 292 294 292 292 293 292 289 289 295 293 286 286 293 295 295 296 296 297 300 300 300 303 303 305 305 306 308 308 308 307 308 307 306 307 307 305 304 301 301 301 302 301 300 300 301 301 301 302 301 301 301 301 299 298 296 295 295 295 295 294 294 294 294 292 292 290 289 289 289 289 289 289 289 288 287 286 286 287 286 286 286 286 285 285 285 284 284 284 284 283 284 283 283 283
291 291 298 297 295 294 292 292 292 287 285 291 294 286 283 291 292 295 296 297 298 299 298 300 302 303 303 304 306 306 307 308 309 310 309 308 307 306 306 304 302 301 302 303 301 300 300 301 301 301 302 301 302 301 301 300 299 298 297 297 298 297 296 297 297 295 293 291 290 289 288 288 288 288 288 288 288 287 286 286 286 286 286 286 285 285 284 284 284 284 284 284 283 283 283 282 282
289 295 299 297 295 293 292 293 292 288 293 292 292 291 288 286 292 295 297 296 298 298 299 300 301 302 303 304 305 306 307 309 309 309 310 310 309 307 305 305 304 302 303 302 302 301 300 300 302 302 302 302 302 301 300 300 298 298 299 300 300 299 298 297 294 293 292 290 289 289 288 288 288 288 287 287 287 287 286 285 285 285 285 285 285 284 283 283 284 284 284 284 284 283 283 282 281
293 297 299 296 295 294 294 294 291 292 291 286 292 291 289 287 291 295 295 295 296 297 298 299 300 302 303 303 304 305 307 309 310 309 310 310 309 308 308 307 307 304 301 301 301 300 301 301 302 302 302 302 301 300 300 299 299 298 299 299 298 298 298 296 293 292 291 290 289 288 288 287 287 287 287 286 286 286 285 285 285 285 285 285 284 284 283 283 283 283 282 283 282 282 283 282 282
295 298 298 296 296 295 295 294 292 290 288 284 286 286 286 286 289 291 293 295 296 298 300 301 301 301 303 304 304 305 307 308 309 310 310 311 311 310 310 309 308 305 304 303 302 302 301 301 300 301 301 301 301 299 299 298 299 299 299 299 299 297 296 294 293 292 290 290 289 288 288 287 287 287 286 286 285 285 285 285 284 284 284 284 284 283 283 283 283 283 282 283 282 282 283 282 281
300 298 295 295 294 293 292 291 291 288 284 284 285 286 288 285 288 292 292 295 298 300 300 301 302 302 303 305 305 306 306 307 307 309 310 311 312 311 309 307 306 306 305 304 302 301 301 301 301 300 300 301 300 299 298 297 298 298 299 299 299 297 295 294 292 291 290 290 289 288 288 287 287 286 286 285 285 285 284 284 283 284 284 284 283 282 282 282 283 283 283 283 282 282 281 281 282
297 292 291 291 289 292 291 290 292 284 282 284 286 286 288 284 286 291 297 297 298 300 300 299 300 302 303 304 304 305 305 306 307 308 308 310 310 310 308 305 304 304 303 301 301 300 300 300 301 300 299 299 299 298 298 298 299 299 300 299 299 297 295 294 293 292 291 291 290 288 288 287 286 286 286 285 284 284 284 283 284 283 283 283 282 282 282 282 283 283 283 282 282 282 282 282 282
294 292 291 287 283 285 282 286 282 283 281 284 286 288 287 287 291 294 296 297 297 298 300 301 302 303 304 304 305 305 305 306 306 307 308 308 308 308 307 306 304 301 301 301 298 298 298 298 299 299 298 298 298 297 299 299 298 298 298 298 298 296 296 296 295 293 292 291 290 288 288 287 287 286 285 284 283 283 284 283 283 282 282 282 282 282 282 282 282 283 282 282 282 281 281 281 281
292 289 287 285 281 280 278 280 282 283 283 286 286 290 287 291 293 297 296 296 295 297 299 299 300 302 303 304 304 304 304 305 306 307 308 308 308 308 308 306 304 301 300 299 298 297 297 297 298 299 298 298 298 298 298 297 297 297 297 297 297 296 296 296 295 293 292 291 290 289 288 287 286 285 284 283 283 283 283 283 283 282 282 282 282 282 282 282 282 282 282 281 281 282 282 281 281
293 291 288 288 285 282 277 280 279 280 281 284 287 285 285 287 289 293 295 293 293 293 293 294 294 295 295 296 298 303 304 304 306 306 307 308 308 308 307 306 303 300 299 298 297 297 297 297 299 299 298 297 297 297 297 297 296 296 296 297 296 296 295 295 293 292 290 289 289 288 287 287 286 285 284 284 283 283 282 282 282 282 282 281 281 281 282 282 282 282 282 282 282 281 281 281 281
293 289 290 288 285 288 283 282 282 281 282 282 285 286 289 291 293 291 291 291 292 292 293 293 295 295 295 296 296 296 301 303 305 306 307 308 308 308 308 306 304 301 299 298 298 297 298 298 299 299 298 297 297 296 296 296 296 295 295 295 295 295 294 293 291 290 290 289 288 288 286 286 285 284 284 283 283 283 282 282 282 281 281 281 281 281 281 281 281 282 282 282 281 282 281 280 281
292 289 286 285 288 287 281 281 280 280 284 282 285 287 291 295 292 291 291 291 293 292 293 294 296 296 297 298 298 298 299 302 304 305 306 307 308 308 308 306 304 302 300 299 298 298 299 299 299 299 298 297 296 296 296 296 294 294 294 294 294 293 293 291 290 288 288 288 288 287 286 285 285 284 283 283 283 283 283 282 281 281 281 281 281 281 280 281 281 281 281 281 281 281 281 281 281
290 286 287 288 287 287 287 281 281 282 280 280 282 285 286 288 285 291 290 290 293 293 293 294 295 296 299 300 299 299 300 301 304 305 306 307 307 307 307 306 305 303 301 299 298 298 300 300 299 298 296 295 295 295 294 294 293 293 293 293 293 292 292 290 289 288 288 287 287 286 286 285 284 284 283 283 283 282 282 281 281 281 281 281 281 281 280 280 281 281 281 281 281 281 280 281 281
290 288 289 285 284 284 285 285 278 278 278 279 281 280 282 286 288 291 290 291 293 293 294 293 297 298 300 299 299 299 301 301 302 304 305 305 306 306 306 306 305 303 301 300 299 299 299 299 299 298 296 296 295 294 294 293 293 293 293 292 291 290 290 289 288 288 288 287 286 286 285 284 283 284 283 283 282 282 282 281 281 281 281 280 280 280 280 281 281 281 281 281 281 280 280 280 280
288 289 288 285 286 283 284 281 282 284 277 277 279 280 282 286 290 290 290 290 289 290 293 295 297 298 299 299 299 299 299 301 302 303 304 305 306 306 305 305 303 301 300 298 298 298 297 297 297 297 296 295 294 293 291 291 292 292 291 290 290 289 289 288 288 287 287 286 286 285 284 283 283 283 283 282 282 282 281 281 281 281 280 280 280 280 280 280 281 281 280 281 280 280 279 279 279
285 287 285 286 283 283 283 281 280 280 280 278 279 278 282 287 289 289 289 289 288 288 293 296 296 297 296 296 297 299 299 301 302 303 303 303 303 303 302 302 302 300 299 298 298 297 297 297 296 295 294 293 292 291 291 291 291 291 290 289 288 288 287 287 287 287 286 286 285 285 284 284 283 283 283 282 282 281 281 281 280 280 280 280 280 280 280 280 280 280 280 280 280 280 279 279 279
281 282 283 283 284 284 281 278 279 276 280 275 278 278 284 288 286 288 289 289 288 288 289 293 294 295 295 296 295 296 298 298 300 301 302 302 302 301 300 299 299 298 298 297 298 297 296 296 296 295 294 293 291 290 291 290 290 290 289 288 287 287 287 286 286 286 286 285 285 284 284 283 283 283 283 282 281 282 281 281 280 280 280 280 280 280 280 280 279 280 280 280 280 279 279 278 278
Wind_Speed
9 7 6 3 3 3 4 3 7 4 3 7 5 4 3 2 4 6 7 8 7 2 2 7 14 13 6 6 7 7 9 6 5 7 4 4 4 5 4 2 1 5 9 7 9 10 11 15 15 18 19 21 21 20 20 19 19 19 19 19 19 19 18 18 17 17 17 17 16 16 17 17 18 18 19 19 19 19 19 19 19 19 19 19 18 19 19 19 20 20 19 19 19 19 19 19 19
8 8 6 2 1 2 4 1 5 7 6 7 6 3 3 4 5 8 11 10 4 8 4 8 10 11 11 13 11 10 9 10 6 4 1 5 6 5 4 1 3 7 10 7 9 10 11 14 17 18 19 20 20 19 19 18 18 19 19 19 19 18 18 18 17 17 16 16 16 17 17 18 18 19 19 19 19 19 19 19 19 18 19 19 19 18 19 19 19 19 19 19 19 19 18 18 18
9 7 3 2 2 2 3 3 8 9 10 11 7 6 5 6 7 6 7 3 8 12 11 12 13 9 9 11 8 2 5 4 6 5 4 1 8 3 3 1 4 10 10 9 9 10 10 13 17 18 19 20 20 19 19 18 18 18 19 18 18 18 18 17 17 16 16 16 16 17 18 18 19 19 19 19 19 19 19 19 18 18 18 19 19 18 18 19 19 19 19 19 19 19 19 19 18
6 4 3 1 2 2 4 4 8 10 12 11 7 6 6 7 6 7 6 9 10 11 12 14 9 4 2 10 8 10 9 5 2 1 5 2 2 2 2 2 4 9 8 8 10 11 12 15 15 18 18 19 19 19 19 18 18 18 18 18 18 17 17 17 16 16 16 16 17 18 18 19 19 19 19 18 18 18 18 18 18 18 18 19 19 19 18 19 19 19 19 19 19 18 18 18 18
4 3 4 1 2 5 4 5 8 9 13 10 9 8 8 5 9 9 8 9 9 7 10 7 7 4 7 10 3 2 5 6 4 2 2 2 1 2 2 2 3 12 10 11 12 12 13 16 15 17 19 19 19 18 18 18 18 18 18 18 17 17 16 16 16 16 16 17 17 18 19 19 19 19 19 18 18 18 18 18 18 18 18 18 19 19 19 19 18 19 18 18 18 18 18 18 18
3 3 2 1 2 3 2 4 8 9 8 3 9 5 9 8 12 11 10 4 2 1 4 5 6 11 6 4 3 4 1 7 2 2 1 2 5 4 4 2 6 11 11 11 11 11 12 15 15 17 19 19 19 18 18 18 18 18 17 17 16 16 16 16 16 16 16 17 17 18 19 19 19 19 18 18 18 18 18 18 18 18 18 18 18 19 19 18 18 18 18 18 18 18 18 18 18
3 2 1 2 2 1 7 10 9 9 7 1 2 4 10 11 13 16 12 8 1 3 4 4 13 12 9 4 6 4 3 1 3 1 2 5 6 5 2 3 12 12 12 12 11 12 15 15 16 18 18 19 19 18 18 18 18 17 17 16 16 16 16 16 16 16 16 17 17 18 18 18 19 18 18 18 18 18 18 18 18 18 18 17 18 18 18 18 18 17 17 17 18 18 18 18 18
2 3 1 4 3 2 8 9 11 9 4 1 4 2 9 13 15 14 15 14 10 9 5 10 8 6 8 7 6 3 3 3 1 3 4 4 4 5 4 8 14 14 14 13 12 12 14 13 15 17 18 18 18 18 18 18 17 17 16 16 16 16 16 16 16 16 16 16 17 18 18 18 18 18 18 18 18 18 18 18 18 18 17 17 17 17 17 17 17 17 17 17 18 18 18 18 18
3 4 1 2 4 1 4 8 10 3 1 1 2 2 9 13 12 13 17 6 9 8 13 12 7 7 7 9 7 4 2 2 2 2 3 3 3 3 5 13 11 12 14 13 12 12 13 12 14 16 17 18 18 18 18 17 17 16 16 16 16 16 16 16 16 16 16 16 17 18 18 18 18 18 18 18 18 17 18 18 17 17 17 16 16 16 17 16 16 17 17 17 18 18 18 18 18
3 4 7 2 3 9 6 6 8 7 5 3 1 8 13 13 11 12 13 10 10 12 10 3 3 6 15 10 6 3 2 1 1 3 4 1 4 7 10 11 11 15 13 13 13 12 12 13 14 15 16 17 18 17 17 17 17 16 16 16 16 16 16 16 16 16 16 16 17 17 17 18 18 18 18 18 18 17 17 17 17 17 16 16 16 16 16 16 16 16 17 18 18 18 18 18 18
6 2 1 7 7 10 11 8 9 3 4 3 3 7 10 11 12 10 9 9 11 11 7 5 9 16 13 7 4 3 3 3 4 4 4 6 3 9 12 10 10 14 14 14 14 13 13 13 14 14 15 16 17 17 17 17 17 16 16 16 16 16 16 15 15 15 16 16 17 17 18 18 18 18 17 17 17 17 17 17 17 16 16 16 16 16 16 16 17 17 17 18 18 18 18 18 18
7 8 6 11 12 12 10 10 9 6 3 4 5 9 8 12 11 10 11 13 12 8 9 7 7 15 11 10 4 4 5 4 4 4 6 5 5 12 11 9 10 11 14 14 13 13 14 13 12 13 14 14 15 16 16 16 16 16 16 16 16 16 15 15 15 15 15 16 16 17 18 18 17 17 17 17 16 17 17 17 17 16 16 16 16 16 16 16 17 17 17 18 18 18 18 17 17
9 8 11 10 12 12 10 11 9 7 6 8 8 10 10 11 12 12 12 10 11 12 8 3 14 6 9 9 4 4 5 4 3 6 6 5 5 10 10 10 10 10 10 12 13 12 12 12 11 11 13 15 15 14 15 16 16 16 15 16 16 15 15 15 15 15 15 16 16 17 17 17 17 17 17 16 16 16 17 17 17 16 16 16 16 16 17 17 17 17 17 17 17 18 17 17 16
9 8 10 12 8 12 13 9 7 10 9 7 7 11 13 9 7 9 9 13 13 11 4 4 9 6 9 7 5 6 6 5 5 7 6 6 6 10 12 9 10 9 9 11 12 11 10 10 9 10 11 11 12 13 15 15 15 16 15 15 15 15 15 14 14 15 15 15 16 16 16 17 16 16 16 15 16 15 15 16 16 16 16 16 16 17 17 17 17 17 17 17 17 17 16 16 16
9 3 8 11 10 10 12 11 11 12 9 11 8 14 14 3 7 7 11 13 7 5 4 4 2 6 6 14 8 11 10 9 8 8 9 9 10 11 11 8 9 9 9 11 11 10 9 9 8 7 7 8 9 8 9 12 15 15 15 15 15 15 14 14 14 14 14 14 15 14 15 15 15 15 14 14 15 15 15 15 16 16 16 16 16 17 17 17 17 17 17 17 17 16 15 14 14
3 7 7 11 14 14 12 13 11 10 7 12 12 13 11 6 3 11 3 1 6 2 4 5 1 0 7 5 9 16 14 12 11 10 11 12 10 10 10 10 9 9 8 8 9 8 8 8 6 5 5 5 7 8 9 10 12 14 14 14 14 14 14 13 13 13 12 12 12 12 11 10 11 11 12 11 13 14 15 14 15 15 16 16 16 16 16 16 17 17 17 16 16 15 13 10 11
1 3 11 11 16 15 12 14 13 12 10 11 11 14 11 8 3 4 2 7 13 8 5 5 3 2 2 7 18 18 15 13 11 12 11 7 9 9 7 6 7 7 6 8 6 7 7 8 6 5 4 5 7 8 8 8 9 12 12 13 14 13 12 11 10 9 10 9 7 8 8 8 8 7 8 8 10 10 13 13 14 14 15 15 15 15 15 16 16 16 16 15 15 14 12 7 8
2 7 14 16 12 16 14 16 13 8 12 12 14 13 14 10 6 7 8 8 8 8 6 6 9 10 11 15 18 16 15 15 13 11 9 9 8 8 7 6 8 8 6 5 5 5 5 5 6 5 3 4 6 5 5 5 6 8 9 8 8 8 8 8 7 6 6 6 6 7 7 7 7 7 7 7 7 9 10 13 13 13 13 13 13 14 15 15 15 15 14 13 13 13 11 6 7
11 3 11 16 13 10 12 11 10 11 10 15 14 13 10 10 15 10 10 9 12 10 7 8 10 11 15 17 17 16 15 15 14 12 13 12 9 12 9 6 8 8 7 6 4 4 3 4 5 4 4 5 7 6 4 6 6 7 8 7 6 8 7 7 6 6 6 6 6 7 7 7 7 7 7 5 4 7 8 10 10 10 11 12 11 10 11 13 12 12 13 11 11 12 8 7 7
11 9 10 13 11 5 3 5 9 3 15 16 16 13 8 10 6 8 7 13 12 13 11 10 11 14 15 15 16 15 16 15 13 12 13 9 10 11 11 10 9 9 8 6 7 4 3 5 6 6 6 7 6 6 5 6 6 6 6 6 6 6 6 6 6 5 5 6 6 6 6 6 5 5 4 4 4 5 5 6 7 7 8 10 12 7 9 10 10 10 10 11 8 7 7 7 7
6 7 10 10 6 8 3 5 7 10 15 15 15 13 12 11 9 9 12 11 11 10 9 11 14 18 16 16 17 17 13 12 9 7 9 9 7 7 7 7 8 9 9 8 7 7 7 7 6 6 5 6 7 5 5 5 5 6 5 5 5 5 5 5 4 5 5 5 6 6 6 5 5 5 5 5 5 5 5 5 5 6 6 7 10 7 7 7 8 8 7 8 7 7 7 7 7
8 10 0 5 6 10 2 5 9 10 10 14 16 18 12 10 7 8 14 11 11 10 10 8 15 15 15 18 17 15 14 12 11 9 9 11 12 11 9 7 9 8 9 8 9 8 7 7 7 7 6 6 6 5 5 5 5 6 6 5 5 5 5 4 4 4 5 5 5 5 5 5 5 5 5 5 5 5 5 5 5 6 6 7 7 7 7 8 7 8 8 8 7 6 6 6 6
11 3 1 3 8 7 5 6 10 14 11 14 16 11 13 12 10 7 5 1 4 7 8 13 13 16 15 13 15 14 13 12 11 10 9 10 10 10 10 10 9 9 7 8 8 7 6 6 6 6 7 6 6 6 5 4 5 5 5 4 5 5 4 4 4 4 5 5 5 5 5 5 5 5 5 5 5 5 5 5 5 6 6 7 7 7 8 8 8 7 7 7 6 6 6 6 6
7 9 6 3 6 7 8 8 11 12 13 10 11 13 14 16 13 4 5 3 4 9 12 14 12 12 14 17 12 11 11 12 11 8 6 8 11 10 10 10 9 7 7 7 7 6 6 7 6 7 6 7 6 5 6 5 5 5 5 5 5 5 4 4 4 4 5 5 5 5 5 5 5 5 5 5 5 4 5 5 5 6 6 6 7 7 7 7 7 7 7 7 6 6 6 7 6
10 7 7 4 5 4 7 10 9 11 10 11 14 14 13 10 11 9 4 4 7 10 12 15 13 12 12 12 11 11 10 9 10 8 8 6 8 11 8 8 8 8 9 7 4 6 6 6 6 7 7 7 6 5 5 5 5 5 4 4 5 4 4 4 4 4 5 5 5 5 5 5 5 5 5 5 4 5 4 5 5 5 6 6 7 7 7 7 7 7 7 6 6 6 6 7 6
9 9 8 6 5 9 8 9 9 13 10 12 14 11 9 10 11 7 4 3 6 11 11 14 15 14 11 11 11 11 11 10 10 10 9 8 9 11 9 9 8 9 9 9 6 5 6 6 7 7 6 6 5 5 5 5 5 5 4 4 5 4 4 4 4 4 4 4 4 5 5 5 5 5 5 4 4 4 4 5 5 5 6 6 7 7 7 7 7 6 7 7 7 6 7 6 6
11 10 8 10 8 10 9 15 11 8 10 8 14 12 8 3 2 4 1 4 9 10 13 11 14 13 10 8 8 7 10 11 11 10 9 9 9 9 8 7 8 8 10 10 7 6 5 6 5 5 5 5 5 5 4 5 5 5 5 4 4 5 4 4 4 4 4 4 4 4 4 5 4 5 4 4 4 4 5 5 5 5 6 6 6 6 6 6 5 6 6 7 7 7 6 6 6
11 14 11 8 8 4 8 12 14 12 7 1 15 12 8 2 4 4 6 9 10 13 12 12 11 9 8 8 8 7 6 6 8 9 13 12 8 9 9 8 7 7 7 8 6 6 6 7 6 5 6 5 5 6 5 5 5 5 4 4 5 4 4 4 4 4 4 4 4 4 4 4 4 4 5 4 4 5 5 5 5 5 6 6 6 6 6 5 5 5 5 6 6 5 6 6 6
15 15 8 8 10 7 6 10 12 9 8 10 12 14 7 2 6 7 6 8 11 13 13 12 11 9 9 8 7 5 7 7 6 7 7 6 8 8 11 9 8 8 5 6 6 6 8 7 6 5 5 5 6 6 5 5 5 5 4 4 5 4 4 4 4 4 4 4 4 4 4 4 4 4 4 4 4 4 5 5 5 6 6 5 5 6 6 5 5 5 6 5 5 5 6 6 5
10 7 9 7 9 6 2 2 7 6 7 14 9 5 7 3 6 5 6 9 11 13 10 10 9 8 7 7 5 5 6 8 8 6 5 5 7 9 11 10 10 8 6 5 6 7 5 3 3 3 4 5 5 5 5 5 5 4 4 4 5 4 4 4 4 4 4 4 4 4 4 4 4 4 4 5 4 4 4 5 6 6 5 5 5 5 5 5 5 6 7 6 5 6 7 7 6
8 7 4 2 8 4 4 4 6 8 8 7 2 7 5 4 4 4 7 10 14 13 10 9 9 9 7 6 5 6 5 5 7 8 7 5 7 7 10 9 8 6 6 6 8 7 6 5 4 4 4 5 4 4 4 5 4 4 4 4 4 4 4 3 3 3 3 3 3 4 4 4 5 6 5 4 4 4 5 5 6 5 5 5 5 5 5 5 6 6 7 7 7 6 6 6 7
9 7 1 3 3 3 4 2 7 10 6 3 4 3 9 8 5 3 4 9 13 12 10 10 9 9 8 7 7 6 7 5 6 7 6 6 5 5 8 9 8 7 9 8 6 6 7 5 5 5 5 5 4 4 5 5 5 4 4 4 4 4 4 3 3 3 3 3 3 4 4 4 5 6 5 4 5 5 5 5 5 5 5 5 5 5 5 5 6 5 6 7 8 7 7 7 7
6 8 5 1 2 4 3 2 3 2 11 2 6 6 10 4 6 5 5 7 10 11 9 11 10 10 8 8 7 7 8 7 6 7 7 5 4 5 6 8 7 7 7 8 9 7 7 6 5 6 6 6 6 6 6 5 5 5 5 4 4 4 4 4 3 3 3 3 3 4 4 4 6 5 5 4 5 5 5 5 4 5 5 5 5 4 5 5 6 6 5 6 6 7 7 9 8
7 3 5 4 6 5 2 2 3 6 8 6 5 8 7 9 11 8 7 9 8 9 12 9 9 7 7 7 7 8 8 9 8 9 10 9 7 7 6 7 8 8 7 9 10 9 8 7 5 5 5 5 5 6 6 5 5 5 5 4 4 4 4 3 3 3 3 3 3 4 4 5 5 5 5 5 4 5 5 4 4 5 5 5 4 4 5 5 6 6 6 5 5 6 6 8 10
10 8 9 6 5 4 4 4 1 6 2 10 6 9 10 12 10 9 10 8 7 10 9 10 9 9 8 7 7 8 8 8 8 7 8 7 6 7 7 7 7 7 7 9 8 8 6 6 5 5 5 5 6 6 7 6 6 5 5 5 4 4 3 3 3 3 3 3 4 3 4 4 5 5 5 5 5 4 4 4 4 6 5 5 5 5 5 6 6 6 6 6 4 3 6 7 9
14 13 9 11 9 4 5 2 3 4 8 10 11 11 13 12 10 9 10 12 12 9 9 8 8 8 7 8 7 7 7 7 5 6 6 5 4 4 4 5 6 6 6 7 7 6 6 5 5 5 6 6 6 6 6 6 5 5 5 5 4 3 3 3 3 3 3 4 3 4 4 4 4 4 5 5 5 4 4 4 5 5 5 5 5 7 7 7 8 8 7 6 7 3 5 7 8
13 11 13 12 9 4 2 2 0 6 5 6 10 13 14 13 11 10 11 11 10 9 10 9 8 8 7 8 9 9 9 7 7 8 6 5 4 3 4 5 5 6 5 7 7 7 7 7 7 7 6 6 7 6 6 6 6 5 4 5 4 4 4 4 3 3 3 4 4 4 4 4 4 4 5 5 5 4 3 4 5 6 5 5 6 6 7 7 7 7 6 4 6 6 6 8 9
12 13 11 9 8 6 4 2 5 5 3 3 10 13 12 12 12 10 9 11 12 13 11 9 9 9 6 9 9 11 10 7 8 7 8 7 6 4 3 4 6 8 7 8 9 8 7 8 8 7 6 7 6 6 6 6 6 5 5 5 4 4 4 4 4 3 4 4 4 4 4 4 5 5 5 5 5 4 4 4 5 5 5 5 5 4 6 6 7 7 7 5 3 5 6 8 9
9 10 8 9 3 4 4 6 6 5 6 4 9 11 8 9 9 9 8 8 5 6 8 10 10 10 8 8 8 9 9 9 9 8 9 8 7 6 4 5 6 7 7 8 8 8 7 7 7 7 6 6 5 5 6 5 3 1 2 4 5 4 3 3 4 4 4 4 4 4 4 4 4 4 5 5 4 4 4 5 5 5 5 6 5 5 5 6 6 7 8 7 6 4 4 5 8
10 7 7 4 7 7 3 4 1 6 2 7 8 10 7 6 6 6 6 4 3 3 1 4 7 9 10 11 10 11 10 11 12 11 11 11 10 8 5 6 7 6 6 6 7 9 7 7 7 6 6 6 5 5 3 4 4 5 6 6 5 3 4 5 5 5 5 4 4 4 4 4 4 4 5 4 4 4 5 6 5 5 5 6 5 5 5 6 6 6 7 7 7 6 6 6 6
8 11 6 7 8 3 1 5 5 4 5 8 11 8 4 3 6 5 4 4 4 3 3 2 4 6 8 8 9 9 11 11 11 11 11 11 12 12 11 9 7 7 7 7 7 7 5 8 6 6 6 6 6 6 6 6 7 7 6 7 6 7 6 4 4 4 3 3 3 3 4 4 4 4 4 4 3 4 6 6 5 5 5 5 5 5 5 5 6 5 7 6 8 6 6 6 5
7 2 7 11 8 10 10 11 9 3 4 4 2 4 2 2 4 5 5 3 4 5 6 8 6 7 6 8 9 9 8 9 11 13 13 13 13 12 12 9 8 7 8 7 6 6 6 6 6 6 5 6 7 8 8 7 6 7 7 6 6 5 5 5 5 5 4 3 3 3 3 4 4 4 4 3 4 5 7 6 5 5 5 4 4 4 4 4 5 6 6 6 6 6 5 5 6
7 3 5 10 11 10 10 10 2 4 6 3 3 1 7 1 5 6 6 7 8 6 8 9 9 9 8 8 8 9 11 11 9 9 10 11 12 12 12 11 10 10 9 6 5 6 6 4 6 6 6 6 6 7 8 6 6 6 7 7 5 5 5 4 3 4 4 4 3 3 3 4 4 4 4 3 5 6 6 5 5 4 4 4 4 4 4 5 4 5 5 5 5 5 6 5 6
5 1 8 10 13 10 9 6 3 5 5 4 1 1 4 7 3 2 4 7 9 10 11 11 9 10 11 9 9 9 10 11 12 12 13 13 12 13 14 13 10 10 7 6 5 5 6 5 6 7 6 6 6 6 7 7 6 5 5 3 3 3 3 4 5 5 4 4 4 3 3 3 3 3 3 4 6 6 5 5 5 4 4 4 4 3 4 4 4 4 4 4 4 4 4 5 5
3 1 9 9 10 9 7 4 7 6 4 4 6 9 4 3 2 3 2 5 8 10 11 11 11 11 12 11 10 11 11 11 12 12 13 13 12 12 12 13 12 7 7 6 6 5 5 5 6 6 6 7 7 8 7 6 4 5 4 4 3 2 3 5 5 5 4 4 4 3 3 3 3 3 3 5 6 6 5 4 4 4 4 4 3 3 4 4 5 5 5 4 5 4 4 4 4
2 8 11 8 7 4 3 4 5 1 1 5 6 6 2 4 2 2 0 4 8 10 10 10 11 13 12 12 12 12 11 10 10 11 12 13 13 12 10 7 9 8 8 4 5 5 5 5 6 7 7 7 7 9 7 6 5 5 5 5 6 5 4 5 5 5 5 4 4 4 3 2 2 2 4 6 5 5 4 4 4 4 4 3 3 3 4 4 4 4 4 4 4 4 2 3 4
8 13 9 5 4 3 3 2 2 1 4 4 5 6 4 5 4 7 8 7 6 6 3 6 8 9 11 11 12 12 12 11 11 11 11 11 11 10 8 9 10 8 7 6 5 6 6 7 8 8 7 6 7 8 8 6 5 5 5 6 7 7 7 7 6 5 5 4 4 3 2 2 1 2 3 4 5 4 3 4 4 3 3 3 3 4 4 4 4 4 3 3 3 3 3 3 3
9 4 5 9 6 4 2 1 2 1 4 3 6 5 6 4 3 4 5 2 1 6 8 9 9 10 10 10 10 11 12 11 11 11 10 10 9 8 9 9 9 9 8 8 5 5 7 7 7 8 6 7 7 7 7 6 5 5 5 6 7 7 8 6 7 7 6 5 4 3 2 2 2 3 3 4 4 3 2 3 2 2 3 3 4 4 4 4 4 3 3 3 3 3 3 3 3
7 7 2 0 3 2 3 1 3 4 3 3 5 6 1 3 4 4 7 5 4 3 2 6 8 8 9 9 10 10 11 12 12 12 11 10 10 11 11 10 9 9 10 10 8 7 6 6 9 9 8 7 7 7 7 7 6 6 5 6 6 6 6 6 6 6 5 4 3 3 2 2 2 3 3 3 4 3 3 3 3 3 3 3 4 4 3 4 4 3 3 3 3 3 3 4 3
8 5 3 0 4 4 5 3 1 3 2 3 3 2 1 2 0 2 5 2 2 3 1 1 1 4 5 6 8 9 10 12 12 11 11 10 10 10 11 11 10 8 9 9 9 8 6 6 9 9 8 7 6 6 6 7 6 6 6 5 5 5 5 5 5 6 5 4 3 3 2 3 3 3 3 3 2 2 2 2 2 2 2 3 3 3 4 4 4 3 3 3 3 3 3 4 3
3 1 1 2 1 2 5 1 2 3 3 1 2 2 2 5 5 2 3 2 1 1 0 1 3 4 4 1 1 5 10 11 10 10 10 11 10 10 10 10 9 8 9 9 8 8 8 8 9 9 9 7 6 6 6 7 6 6 6 5 5 4 5 4 4 5 5 5 4 4 3 3 3 3 3 3 1 2 1 2 2 2 2 3 2 3 3 3 3 3 3 2 3 3 4 4 4
1 1 2 1 2 2 3 2 1 3 3 1 1 1 1 1 1 2 1 1 2 1 2 2 4 3 3 3 5 6 7 9 10 10 10 10 10 10 9 9 9 9 10 8 10 9 9 9 10 9 9 9 7 7 6 7 6 6 6 6 5 5 4 5 5 5 5 5 4 4 4 4 3 3 3 2 1 1 1 1 2 2 2 2 2 3 4 3 3 3 3 3 3 2 4 4 4
2 1 2 3 4 2 6 3 3 1 0 2 1 3 3 3 2 2 2 3 4 3 3 3 3 3 3 5 5 6 7 8 10 10 9 10 9 9 9 10 9 9 9 10 11 10 11 10 10 10 8 8 8 8 7 6 7 7 7 6 6 6 6 7 7 7 6 5 4 4 4 4 4 3 2 1 1 1 1 1 2 1 1 1 2 3 3 3 4 2 3 3 3 4 4 4 4
1 3 2 2 1 2 1 3 1 1 1 2 1 1 1 3 4 3 3 4 6 6 5 3 2 2 5 4 4 5 7 8 11 11 9 9 9 9 8 8 10 11 11 10 10 9 9 9 10 11 9 10 8 8 7 7 8 7 7 7 6 6 6 7 7 8 6 5 5 4 4 4 3 2 2 2 2 2 1 1 2 1 1 1 2 2 2 3 3 2 3 3 3 4 4 4 4
1 4 2 2 1 2 2 0 2 2 2 1 2 2 3 4 4 2 5 2 2 4 3 3 3 3 3 3 3 4 6 8 11 11 10 10 10 11 10 10 9 9 8 8 9 8 7 7 7 9 11 10 10 7 6 6 7 5 5 6 7 6 6 6 6 7 6 5 5 4 4 4 3 3 3 3 2 1 1 1 1 1 1 1 1 1 2 2 3 3 3 3 3 4 4 5 5
3 1 1 1 2 2 1 2 1 2 2 1 1 2 3 2 2 2 3 4 4 1 3 4 1 1 2 2 3 4 6 9 10 10 9 9 9 9 9 9 10 9 9 8 8 7 9 8 9 8 8 9 8 7 7 7 6 5 5 5 5 6 6 7 7 7 6 6 5 5 5 4 3 3 3 2 2 1 1 1 1 1 2 1 1 1 1 2 2 3 3 3 3 4 5 5 5
3 1 2 1 3 1 1 2 2 1 1 1 1 2 2 2 0 2 3 3 3 2 1 1 1 1 1 1 2 3 4 6 8 8 7 7 7 7 6 6 6 6 7 8 8 9 9 8 9 10 11 10 8 7 7 7 7 6 7 8 7 7 7 6 7 6 6 6 5 5 5 3 3 3 3 3 2 1 1 1 2 2 1 1 1 1 1 1 2 3 3 3 3 4 5 5 6
2 3 3 2 0 0 0 2 2 1 1 1 0 3 1 2 1 1 2 1 1 1 2 2 1 1 1 1 1 1 3 3 4 5 6 6 7 6 6 4 4 6 7 9 7 8 8 9 8 9 8 8 10 8 7 7 6 7 8 8 8 7 6 6 7 6 6 6 5 5 5 4 4 4 3 3 2 1 1 2 2 2 1 1 1 1 1 1 2 3 3 2 3 4 5 6 6
Wind_Direction
317 315 304 287 258 261 215 179 216 166 219 218 207 195 164 57 114 144 140 140 154 120 56 141 137 138 147 157 121 87 19 182 10 197 131 91 121 106 90 69 153 148 126 122 128 125 119 109 106 101 100 98 96 92 91 93 93 91 90 88 87 85 85 83 80 78 75 72 69 67 64 62 59 56 54 51 48 46 44 42 41 40 39 37 36 35 36 34 34 35 32 32 32 29 28 27 25
319 313 291 245 261 216 187 225 258 190 219 222 216 178 155 134 167 179 161 171 150 151 154 113 99 81 88 100 117 105 63 38 40 62 136 110 121 92 43 30 248 161 129 142 118 119 116 109 106 103 98 96 93 96 96 96 95 93 92 90 88 87 85 82 79 76 74 71 68 65 63 60 58 56 53 50 49 46 43 41 39 39 39 37 35 35 35 36 37 36 34 32 32 30 28 26 24
321 319 264 198 193 298 109 222 225 210 208 218 196 198 111 164 193 168 154 108 114 128 131 108 93 81 111 120 113 215 122 53 76 70 75 206 133 105 57 249 275 137 125 120 120 117 112 103 103 107 104 98 99 99 98 96 95 93 91 91 89 87 85 82 79 76 73 70 68 65 62 59 56 55 52 50 48 46 43 40 39 39 38 37 36 35 35 36 36 35 33 32 30 29 28 26 24
313 267 292 155 172 277 203 200 242 224 215 215 207 157 184 184 144 112 89 116 122 136 131 135 121 346 200 139 112 74 87 102 30 48 128 130 67 94 351 309 272 137 126 122 115 112 110 103 99 99 100 103 102 102 99 97 96 94 93 92 90 87 83 81 79 76 73 70 66 64 61 57 55 53 50 49 48 46 43 41 41 39 38 37 37 37 36 36 36 36 34 31 30 30 27 25 23
329 270 265 235 189 193 218 232 229 223 221 206 215 149 184 165 128 119 115 131 136 146 156 122 99 58 26 89 106 171 134 83 99 3 61 95 55 2 306 294 216 129 126 117 110 108 103 98 99 101 103 106 105 103 100 100 98 96 93 91 89 87 84 81 78 75 71 68 66 63 59 56 54 52 50 48 48 46 43 42 42 40 38 38 37 37 37 36 36 36 34 31 30 28 26 24 22
272 283 249 259 221 17 247 215 217 228 234 221 218 165 162 143 139 135 132 111 114 21 101 155 155 152 131 43 27 121 124 147 109 83 337 105 343 324 305 271 158 120 124 117 114 111 109 103 104 104 104 104 105 104 103 102 99 97 94 91 89 87 83 79 76 72 70 67 65 62 60 57 54 52 50 48 46 44 42 42 41 40 38 38 39 38 38 37 36 36 35 32 29 27 26 23 21
327 252 338 84 102 246 233 228 230 223 206 284 286 129 153 142 138 138 142 123 29 97 329 125 111 106 99 125 93 60 36 345 163 100 314 309 309 306 271 217 122 122 122 114 112 112 110 103 107 107 107 108 107 106 104 102 100 97 94 92 88 85 81 78 74 71 69 66 64 61 60 57 54 52 49 47 45 43 42 41 40 39 38 38 39 40 39 38 38 37 35 32 29 26 24 22 20
229 248 126 203 141 221 215 235 235 218 179 310 46 121 148 147 146 151 155 157 170 164 171 149 159 96 86 166 132 117 67 66 27 308 306 301 307 287 267 145 115 119 117 114 107 103 103 104 107 108 108 108 107 106 105 102 99 97 95 92 87 83 80 76 74 71 69 66 63 62 61 57 55 52 49 46 44 43 41 40 39 38 38 38 40 40 39 39 39 37 34 31 28 25 23 20 18
234 232 13 182 187 62 207 214 232 240 15 177 130 106 139 146 154 156 158 163 137 164 155 174 166 121 164 141 110 134 101 72 66 353 339 315 273 214 143 109 103 109 115 112 110 111 107 97 103 106 109 107 105 105 103 101 99 97 94 91 86 82 79 76 73 71 69 67 65 64 61 58 56 52 49 46 43 42 41 39 38 38 38 38 39 39 39 39 38 36 33 30 27 24 21 19 18
213 246 193 205 172 203 194 201 217 216 220 66 119 158 153 152 155 169 160 149 160 145 153 163 251 138 140 127 119 160 126 21 115 59 26 30 139 118 87 92 100 113 115 114 115 109 102 91 94 100 106 106 106 104 102 101 98 96 93 89 85 81 79 76 73 70 69 68 67 65 62 59 57 54 50 46 43 41 40 39 37 36 36 38 38 38 39 38 36 35 31 29 25 22 20 18 18
211 209 296 202 189 212 203 195 211 170 198 120 106 155 156 152 154 164 168 143 147 157 130 157 117 130 133 120 98 70 92 90 101 65 43 92 84 94 91 78 84 110 114 115 115 115 113 109 93 98 102 105 104 103 102 100 98 94 90 87 84 81 78 75 73 71 69 68 67 64 62 60 59 56 52 47 43 40 38 37 36 35 36 36 36 36 37 36 34 32 30 27 24 21 19 18 18
216 202 182 217 212 206 205 207 190 194 122 175 149 161 164 158 159 158 164 153 166 147 153 196 159 137 118 129 141 124 118 88 75 78 76 87 80 84 84 83 79 87 103 108 109 111 119 115 108 91 91 96 98 99 100 98 95 92 89 86 83 81 78 75 72 70 68 68 67 65 63 62 60 57 53 48 44 40 38 34 34 34 34 35 35 35 35 34 33 30 28 26 23 20 18 18 19
229 205 206 224 219 211 204 203 190 177 183 199 163 172 166 164 178 175 167 150 157 152 167 285 145 152 134 148 118 132 135 114 108 96 87 96 83 91 86 79 70 73 79 93 96 92 102 117 113 104 92 89 88 91 93 93 92 90 87 86 83 80 78 74 71 68 68 68 67 67 65 64 62 57 52 48 44 41 37 33 32 33 34 34 34 33 33 33 31 29 26 24 21 19 18 18 19
225 208 217 224 220 217 209 195 156 192 208 151 149 159 176 177 181 164 154 155 166 166 87 148 156 114 103 102 144 159 151 137 124 98 95 85 81 88 86 81 74 75 72 92 97 95 94 100 107 110 111 107 102 91 85 87 89 89 87 85 83 80 77 74 71 69 68 67 68 68 68 66 63 58 54 49 43 40 37 34 30 32 33 33 34 33 32 31 30 27 24 22 20 18 17 19 19
220 176 221 233 219 208 204 201 182 196 201 144 146 169 169 171 166 149 166 155 143 48 104 17 8 175 192 158 176 182 154 147 122 109 111 100 84 86 84 78 76 73 78 87 91 92 89 87 87 86 88 105 107 104 100 88 87 86 85 84 81 79 76 74 71 69 69 68 70 72 72 70 65 60 57 50 44 40 35 34 30 31 33 33 33 33 31 29 27 25 22 20 18 17 15 19 19
251 194 218 221 223 207 199 209 184 194 181 149 157 164 165 104 138 165 127 334 104 50 197 141 359 0 142 196 155 148 137 134 124 120 120 108 92 84 85 83 81 74 70 77 81 80 92 85 77 71 66 81 98 106 105 99 86 85 84 82 81 79 77 75 73 71 68 70 71 70 72 73 67 62 54 52 45 41 36 33 32 32 33 33 32 32 30 27 25 23 21 17 15 14 10 11 17
342 267 210 218 225 207 192 201 177 203 132 142 151 151 152 159 54 47 23 136 131 142 70 31 25 335 116 105 113 125 128 126 119 127 129 115 109 97 87 96 95 81 79 66 56 90 91 92 78 72 40 79 95 101 99 94 93 94 88 82 80 78 79 76 76 76 75 68 68 68 69 63 64 56 48 44 42 43 36 35 33 34 33 31 31 31 29 27 24 22 19 16 13 8 1 353 11
107 216 212 217 216 209 199 199 188 128 136 148 166 166 144 146 163 136 129 138 110 125 105 94 72 73 97 109 113 121 128 129 134 147 142 126 122 114 110 113 116 113 97 82 54 54 85 78 88 89 81 72 91 91 93 98 98 92 97 96 90 88 79 78 71 69 69 73 69 64 58 59 57 53 49 42 46 39 42 35 35 34 32 28 27 30 29 25 23 22 18 14 9 2 358 359 5
186 217 225 223 210 211 212 199 166 140 156 157 163 172 158 153 154 166 161 150 153 139 134 134 100 101 108 116 120 126 133 135 143 149 140 139 133 126 123 119 115 117 109 96 68 66 61 99 101 106 113 108 100 98 95 98 98 97 94 94 93 86 81 75 77 68 67 65 64 63 60 60 61 64 51 43 41 57 47 34 28 28 27 23 15 21 23 19 16 16 15 8 6 2 5 5 5
199 189 216 233 228 181 139 164 148 140 139 144 161 169 140 125 116 156 180 160 170 168 148 145 140 138 133 126 128 135 138 142 148 152 148 146 128 126 130 132 132 124 123 132 135 138 152 128 130 131 128 124 118 112 109 108 106 106 104 102 100 97 89 81 73 69 66 63 64 63 64 62 60 58 74 50 39 29 36 29 19 17 17 20 6 14 13 14 5 11 11 5 11 9 6 3 0
176 198 212 209 192 174 157 164 137 133 145 149 153 145 127 157 147 155 152 150 190 183 178 167 159 148 140 138 139 143 139 138 137 131 124 110 89 98 104 127 130 134 137 142 137 148 148 140 136 126 126 117 114 112 111 115 112 107 102 99 97 97 92 89 83 76 67 66 65 68 67 67 59 54 38 36 31 32 23 19 16 15 13 14 7 15 10 7 7 8 10 11 13 8 -0 -0 359
162 205 265 219 181 218 145 152 142 132 131 140 152 158 159 140 133 168 159 172 187 187 176 163 147 139 140 143 146 144 137 140 139 137 139 133 136 133 125 110 116 120 136 139 136 142 142 142 138 135 129 125 123 124 121 122 124 109 104 101 102 95 90 87 83 77 70 63 62 63 68 63 59 53 43 35 34 29 22 22 17 14 12 15 11 12 8 8 7 10 9 10 5 1 358 354 360
193 184 175 297 203 191 161 160 139 135 140 145 162 150 121 151 148 150 177 59 102 117 138 144 147 144 136 137 145 144 138 138 141 144 140 131 125 130 127 128 135 138 138 130 135 135 139 141 136 138 133 130 124 125 129 129 110 108 109 107 107 102 96 88 85 79 68 61 61 55 54 55 53 48 44 38 36 28 25 19 19 14 13 15 11 10 7 10 8 7 4 1 354 352 353 352 358
220 187 158 195 314 174 167 151 146 139 142 139 139 137 144 149 143 157 98 39 108 116 130 128 138 142 133 143 151 141 138 139 137 128 123 129 132 131 125 137 132 125 123 128 129 139 145 143 143 143 139 136 131 134 129 121 118 114 113 115 99 91 92 88 85 79 77 67 54 52 53 54 49 48 42 40 34 31 27 17 16 18 16 16 9 13 8 6 6 4 355 349 351 349 350 353 355
192 165 160 125 85 118 146 144 141 125 104 113 132 144 152 159 141 129 93 106 124 119 121 126 133 141 141 134 137 136 132 125 119 110 106 113 115 122 127 117 125 131 128 120 129 144 147 142 153 147 143 140 135 137 127 122 122 121 124 109 100 97 93 91 86 86 78 71 60 48 44 52 53 51 45 39 32 33 27 19 20 22 18 15 11 15 10 2 4 357 351 347 351 350 348 358 351
204 172 142 138 132 149 148 106 115 125 129 125 104 114 108 104 113 68 73 120 133 125 121 130 138 144 139 140 142 144 136 130 125 128 128 125 132 125 129 135 147 150 134 139 162 158 151 148 159 153 148 139 135 136 130 132 129 126 120 106 106 103 95 95 91 78 76 72 66 56 51 53 51 49 48 38 35 29 25 22 24 22 23 17 15 13 9 1 357 352 350 349 353 352 351 354 348
158 127 139 138 139 141 144 136 122 106 116 123 116 127 125 38 268 144 55 111 141 131 126 130 141 142 138 133 130 128 134 138 137 128 122 129 140 135 136 146 155 139 133 151 169 158 147 154 156 150 135 130 143 140 141 129 127 122 117 116 111 103 108 103 88 84 78 75 72 64 62 55 59 55 48 35 34 27 27 27 25 21 25 21 16 12 5 358 349 351 350 348 348 346 348 348 351
122 121 109 112 117 107 147 134 138 126 127 292 124 124 119 82 41 106 157 144 154 130 129 139 140 133 130 130 130 121 119 112 123 137 139 151 152 144 147 156 154 130 149 159 158 151 150 162 153 147 148 146 151 140 133 127 119 116 120 115 107 108 110 98 94 91 86 81 73 65 57 59 63 63 52 43 33 30 28 26 27 25 25 18 17 9 358 349 342 340 342 337 336 334 342 347 348
140 124 100 132 121 107 135 147 157 146 136 153 126 109 121 90 134 130 144 149 153 131 132 139 134 131 131 127 126 124 129 137 139 131 140 141 136 139 154 165 157 152 161 159 151 153 156 156 153 151 148 152 156 144 130 117 118 122 122 113 113 116 111 104 99 96 92 87 77 65 61 58 56 58 55 43 34 35 30 26 27 28 22 14 12 2 349 345 344 347 350 338 344 339 346 348 344
132 97 116 141 131 116 73 91 160 122 141 154 156 177 173 116 113 122 146 149 147 130 129 137 129 129 131 127 120 117 121 134 137 131 126 135 136 149 162 165 163 157 151 152 153 164 148 135 142 145 155 154 153 143 128 125 122 115 108 111 117 123 110 109 107 100 97 92 82 71 66 55 55 54 48 42 28 31 32 32 26 24 15 6 12 7 354 352 350 352 354 347 351 351 352 346 343
142 134 117 182 144 142 116 146 185 143 166 160 28 188 156 130 145 135 155 154 150 137 138 139 131 126 132 125 127 136 141 138 136 131 146 148 155 163 156 156 157 147 145 155 168 156 146 152 157 155 156 144 146 134 124 114 116 116 116 116 118 112 112 114 110 106 101 93 88 75 61 61 60 56 41 34 33 27 29 33 26 20 4 4 11 10 350 356 357 353 1 352 349 354 351 343 337
134 120 154 331 176 110 84 110 203 154 174 241 193 193 163 162 157 163 161 160 147 132 137 140 133 134 139 136 139 140 134 123 134 136 146 149 155 153 153 155 160 160 162 160 152 147 159 162 167 152 151 141 138 121 118 119 117 109 103 99 115 113 119 115 109 99 94 92 85 81 66 62 58 52 41 28 36 30 32 30 25 9 2 9 10 359 358 4 2 352 8 358 347 350 347 345 338
169 173 130 180 91 115 95 129 319 253 129 173 247 150 114 161 168 165 156 161 142 127 137 145 144 143 141 140 143 136 131 133 142 152 154 140 149 161 158 153 163 166 159 158 161 165 165 156 167 156 155 148 140 124 117 112 110 104 104 105 111 120 123 115 107 103 97 87 81 74 66 63 59 50 39 32 37 35 33 28 20 8 7 9 3 359 8 7 3 356 1 4 347 339 343 342 340
142 103 136 139 144 142 171 90 274 148 156 140 180 132 145 137 149 166 167 162 143 132 145 151 149 146 145 144 146 142 150 153 162 165 165 159 163 162 167 160 164 168 166 170 171 169 170 163 164 150 134 146 137 128 126 122 110 104 104 109 114 115 105 107 107 102 93 88 81 74 65 62 56 47 36 32 45 41 37 24 20 10 10 5 358 0 15 9 5 2 354 357 353 348 353 350 344
149 142 126 118 110 168 151 180 170 170 231 133 116 108 121 135 145 160 169 155 146 150 146 154 152 149 151 149 149 151 157 164 168 167 164 160 150 155 160 161 156 164 170 175 172 171 165 156 146 139 139 140 127 118 113 107 105 97 98 114 120 117 110 98 102 100 88 81 74 69 61 64 58 45 35 34 37 34 33 28 24 14 10 1 2 9 13 15 7 1 352 349 347 360 355 353 344
148 152 131 132 137 156 159 251 357 214 141 131 144 143 139 140 147 153 161 165 157 149 144 145 149 148 149 156 154 159 163 159 155 162 167 165 158 146 149 151 156 167 171 171 169 166 167 154 157 146 152 146 130 130 132 131 131 136 138 136 137 133 123 119 101 94 89 82 70 65 61 57 52 44 38 38 36 32 27 29 26 19 10 5 10 15 11 11 4 356 351 348 350 0 19 357 353
107 105 117 137 124 127 196 34 256 291 106 93 124 132 141 146 155 154 154 160 151 147 153 155 159 153 155 162 169 170 168 160 153 168 177 174 184 155 138 147 162 165 170 169 169 175 177 175 170 165 152 148 151 150 153 152 154 147 158 171 157 148 139 127 116 98 83 77 70 67 61 56 48 45 40 34 32 23 27 31 25 25 7 13 19 20 7 4 3 354 333 329 352 1 21 7 357
109 113 113 123 131 146 172 19 320 314 128 98 121 130 148 146 152 154 149 156 161 165 165 168 164 160 155 165 168 172 166 142 146 155 179 188 194 184 144 146 164 170 183 175 179 179 181 181 182 167 152 161 168 167 161 172 172 180 176 170 149 146 145 153 133 115 92 83 70 65 63 58 49 45 40 38 32 23 22 27 32 24 10 12 18 12 7 0 3 358 347 345 5 17 23 13 2
93 106 113 111 116 114 33 331 332 2 57 96 127 129 142 145 145 151 158 160 154 170 174 169 164 169 170 175 171 161 156 156 160 166 174 188 189 186 173 169 178 186 181 180 178 173 181 187 187 170 160 165 166 161 171 179 171 134 160 140 148 128 91 83 97 95 97 90 77 66 60 52 49 50 45 40 29 20 22 31 30 20 19 11 7 12 11 8 4 357 357 1 349 30 27 30 11
121 103 129 139 159 148 173 289 348 30 23 149 143 117 113 120 132 145 159 152 141 157 180 150 173 172 179 181 174 166 165 159 169 171 177 183 187 186 190 182 182 179 172 184 175 180 184 195 183 162 155 160 153 166 150 100 97 95 81 97 91 100 123 105 103 107 108 107 87 70 57 50 48 49 42 36 39 30 32 33 24 20 20 15 5 7 12 11 3 1 359 8 3 3 13 10 21
129 141 123 134 166 245 96 162 124 83 40 115 134 92 90 138 146 154 158 147 110 159 177 200 199 182 177 175 173 176 172 171 171 175 174 178 182 188 194 191 178 181 186 183 175 181 185 190 171 161 157 159 157 154 147 133 121 106 99 96 98 97 103 129 144 136 123 109 105 76 61 52 49 50 44 37 33 40 41 35 20 19 17 12 6 11 12 12 360 3 3 12 21 10 354 355 9
116 27 157 153 151 112 107 128 121 117 97 9 28 108 52 137 159 154 145 141 195 179 190 210 205 196 170 177 187 184 176 176 175 180 179 181 183 185 189 182 181 189 193 188 169 179 180 179 154 152 147 155 159 161 154 154 154 143 147 149 157 156 157 175 189 169 163 148 104 103 81 58 56 54 43 38 40 44 45 33 23 15 18 12 12 9 8 359 11 7 12 8 16 18 349 339 349
141 148 142 144 127 127 135 138 139 120 137 159 88 230 128 314 151 147 160 183 196 188 216 211 200 202 201 196 187 186 189 185 186 186 185 182 184 184 187 183 187 191 195 171 162 177 179 168 154 159 161 162 160 163 166 162 156 163 168 175 171 173 172 169 115 118 129 117 121 110 91 72 56 56 50 36 49 51 45 32 21 18 12 14 9 9 10 4 12 13 7 15 14 9 360 351 348
114 314 143 126 124 136 143 125 82 97 77 106 180 21 116 145 152 89 155 187 190 203 217 218 211 201 201 202 194 188 187 187 189 190 191 193 188 187 186 190 187 189 169 153 169 172 177 170 159 164 162 162 163 162 171 176 165 165 170 161 152 178 187 142 141 124 114 123 124 114 101 89 67 54 56 52 49 47 41 33 21 15 17 17 11 13 10 10 9 18 16 17 14 16 6 353 340
110 171 126 122 124 130 135 100 109 116 142 65 17 342 108 103 87 33 150 186 206 219 210 208 211 210 207 199 195 195 193 190 188 188 189 189 190 195 192 191 191 159 160 165 166 166 158 147 155 155 162 161 165 171 175 182 161 152 159 152 149 109 106 119 124 128 132 135 124 116 107 103 94 78 59 60 53 47 38 30 25 18 16 16 12 10 13 13 15 12 11 20 18 10 8 351 334
320 100 71 68 72 54 64 113 113 119 44 66 4 341 104 98 82 207 346 267 223 211 210 209 205 205 203 199 196 194 193 190 193 192 186 189 190 193 191 169 162 170 174 139 153 153 149 149 157 164 163 169 165 177 179 173 161 153 158 158 149 148 136 129 142 145 145 147 130 128 123 115 114 108 77 61 58 47 35 31 24 20 19 15 15 9 8 13 12 13 17 16 18 1 359 357 350
116 89 111 97 68 56 26 53 61 202 66 35 344 338 338 136 202 192 172 213 205 176 134 199 205 206 204 199 192 189 190 188 189 193 194 192 188 182 160 171 175 164 153 163 165 158 157 165 166 171 171 165 168 176 176 160 152 167 160 158 159 151 147 148 152 157 151 156 144 131 122 119 121 86 75 70 58 43 41 36 25 19 20 18 9 10 16 7 2 6 9 4 21 355 355 339 335
104 104 114 105 61 0 64 3 271 128 78 6 342 336 320 119 162 190 209 72 175 178 184 184 191 199 199 194 192 191 191 191 187 188 190 185 170 168 167 168 167 162 155 166 162 152 159 168 169 164 169 171 165 166 173 152 150 144 142 156 158 153 154 165 171 161 158 151 136 131 146 152 114 89 73 70 51 34 25 30 14 12 26 17 16 16 15 2 359 359 2 353 356 342 340 334 330
79 105 131 83 134 152 84 46 93 39 63 2 334 336 283 49 61 97 173 207 174 200 144 185 189 190 193 195 193 189 189 188 186 189 187 183 179 174 177 172 158 158 172 170 164 159 156 167 173 166 174 169 162 161 163 142 137 140 151 156 147 148 167 175 165 146 144 137 133 146 165 124 102 78 65 64 52 26 21 25 21 20 19 20 18 14 10 7 359 348 359 342 343 336 348 340 330
125 124 146 65 104 86 97 74 41 94 85 2 324 326 356 15 319 163 204 171 92 147 169 17 212 198 181 176 187 193 193 192 191 189 185 182 180 175 174 169 168 165 168 162 160 161 162 171 177 177 164 163 152 150 145 140 141 141 149 148 145 159 168 165 150 135 130 119 134 141 117 85 77 71 72 60 50 33 39 32 25 34 22 13 16 12 9 11 356 341 339 339 328 332 343 326 317
132 5 213 321 53 115 129 186 120 93 81 14 43 269 101 153 116 135 94 49 21 78 172 254 283 287 301 356 181 206 199 198 193 188 186 182 178 171 170 167 163 164 164 161 162 166 165 176 178 174 153 157 148 144 143 142 140 137 136 135 148 162 160 151 127 119 119 129 133 125 104 90 86 87 76 79 85 56 50 39 34 26 19 11 8 8 6 4 355 325 334 339 335 345 328 324 312
186 199 239 256 76 300 87 51 78 127 127 128 201 355 324 12 97 66 356 276 251 196 180 192 226 233 251 254 231 216 211 201 192 190 186 181 174 172 168 167 166 166 167 165 168 167 174 178 176 169 159 155 150 144 148 144 136 129 127 140 151 153 143 129 116 112 120 130 127 115 103 93 90 95 91 111 115 86 57 42 49 29 6 0 3 13 8 358 346 332 337 348 335 349 319 321 312
203 228 42 2 295 116 121 113 55 341 205 86 356 269 211 245 173 170 181 201 194 178 193 211 202 194 225 242 224 212 208 200 197 194 182 175 170 176 174 170 167 167 169 176 176 177 178 168 166 159 146 141 145 150 147 142 126 128 138 146 153 152 146 135 127 129 131 124 120 111 103 101 102 96 113 139 137 138 93 35 36 20 355 339 353 14 5 349 334 335 352 340 340 343 326 316 316
313 82 122 81 352 298 293 112 18 24 114 84 289 5 77 233 135 158 159 186 194 190 188 195 208 188 209 211 203 196 194 197 198 191 178 175 177 179 177 177 172 174 176 175 175 174 175 167 164 154 147 149 146 146 145 140 132 136 145 151 154 147 134 123 130 137 134 131 124 113 119 122 111 122 150 153 161 153 139 70 28 345 316 329 357 0 348 339 332 354 349 344 351 337 325 321 322
333 92 134 256 130 131 37 127 113 129 107 83 140 281 242 287 90 95 70 50 144 178 160 200 200 191 190 184 172 169 184 189 192 183 178 177 182 185 183 179 173 172 172 173 167 165 161 158 157 153 152 148 147 149 144 133 133 138 150 153 147 134 127 129 136 134 134 135 128 125 121 111 132 168 167 164 174 157 120 56 353 312 317 332 352 348 326 338 340 3 356 354 3 346 332 325 324
65 307 91 252 326 41 64 27 355 320 128 190 116 272 84 211 328 21 8 0 346 10 165 195 162 170 185 178 175 168 177 190 191 188 182 179 180 181 178 174 169 169 171 171 164 160 165 155 143 133 125 130 137 140 140 138 137 146 141 138 134 133 133 143 142 139 143 136 133 134 126 135 164 174 158 170 158 139 80 27 304 292 309 337 341 326 306 331 344 14 1 0 0 348 339 332 328
349 337 44 90 48 305 73 75 24 351 112 43 125 132 90 57 33 282 336 355 350 297 218 126 205 247 187 159 166 173 173 186 189 186 179 176 173 167 165 162 160 157 162 165 170 170 161 149 147 143 144 146 147 147 149 144 146 153 152 152 145 142 144 146 138 144 139 136 135 137 132 150 172 176 168 165 158 126 129 263 271 290 322 328 344 320 313 320 354 8 6 359 347 348 343 337 328
337 337 41 12 24 109 333 83 157 12 291 163 136 96 57 57 131 281 331 357 302 327 266 272 300 321 347 42 160 178 185 186 187 177 171 171 171 168 163 151 145 160 168 172 166 159 151 151 146 146 146 154 152 155 156 149 154 155 160 150 146 144 149 148 143 152 144 141 145 139 139 173 188 168 168 155 151 154 229 243 263 284 298 311 308 308 310 330 353 358 358 354 339 344 340 329 328